Time,TemperatureF,DewpointF,PressureIn,WindDirection,WindDirectionDegrees,WindSpeedMPH,WindSpeedGustMPH,Humidity,HourlyPrecipIn,Conditions,Clouds,dailyrainin,SoftwareType,DateUTC
2013-02-25 00:04:00,22.5,15.0,30.04,SW,220,2.0,10.0,72,0.00,,,0.00,weatherlink.com 1.10,2013-02-25 05:04:00,
2013-02-25 00:16:00,21.9,14.0,30.05,SE,129,1.0,4.0,72,0.00,,,0.00,weatherlink.com 1.10,2013-02-25 05:16:00,
2013-02-25 00:31:00,21.3,14.0,30.05,SW,217,0.0,3.0,74,0.00,,,0.00,weatherlink.com 1.10,2013-02-25 05:31:00,
2013-02-25 00:46:00,20.8,14.0,30.06,WSW,238,1.0,3.0,75,0.00,,,0.00,weatherlink.com 1.10,2013-02-25 05:46:00,
2013-02-25 01:01:00,20.7,14.0,30.05,West,263,1.0,3.0,75,0.00,,,0.00,weatherlink.com 1.10,2013-02-25 06:01:00,
2013-02-25 01:16:00,20.6,14.0,30.05,SE,131,0.0,3.0,75,0.00,,,0.00,weatherlink.com 1.10,2013-02-25 06:16:00,
2013-02-25 01:31:00,20.5,14.0,30.06,SSW,201,0.0,3.0,76,0.00,,,0.00,weatherlink.com 1.10,2013-02-25 06:31:00,
2013-02-25 01:46:00,20.2,14.0,30.06,SE,132,1.0,2.0,76,0.00,,,0.00,weatherlink.com 1.10,2013-02-25 06:46:00,
2013-02-25 02:01:00,20.4,14.0,30.06,SE,138,0.0,1.0,75,0.00,,,0.00,weatherlink.com 1.10,2013-02-25 07:01:00,
2013-02-25 02:16:00,20.1,14.0,30.06,SSE,166,0.0,2.0,76,0.00,,,0.00,weatherlink.com 1.10,2013-02-25 07:16:00,
2013-02-25 02:31:00,19.4,14.0,30.06,SSE,153,0.0,1.0,78,0.00,,,0.00,weatherlink.com 1.10,2013-02-25 07:31:00,
2013-02-25 02:46:00,19.6,14.0,30.06,West,262,1.0,3.0,78,0.00,,,0.00,weatherlink.com 1.10,2013-02-25 07:46:00,
2013-02-25 03:01:00,19.3,14.0,30.06,ESE,113,0.0,1.0,78,0.00,,,0.00,weatherlink.com 1.10,2013-02-25 08:01:00,
2013-02-25 03:16:00,19.2,13.0,30.06,South,170,0.0,1.0,78,0.00,,,0.00,weatherlink.com 1.10,2013-02-25 08:16:00,
2013-02-25 03:31:00,18.9,13.0,30.07,SSE,165,0.0,1.0,79,0.00,,,0.00,weatherlink.com 1.10,2013-02-25 08:31:00,
2013-02-25 03:49:00,19.0,14.0,30.07,SE,125,1.0,1.0,79,0.00,,,0.00,weatherlink.com 1.10,2013-02-25 08:49:00,
2013-02-25 04:02:00,19.0,14.0,30.08,SE,127,0.0,1.0,80,0.00,,,0.00,weatherlink.com 1.10,2013-02-25 09:02:00,
2013-02-25 04:17:00,19.4,14.0,30.06,SW,235,0.0,1.0,80,0.00,,,0.00,weatherlink.com 1.10,2013-02-25 09:17:00,
2013-02-25 04:32:00,19.3,14.0,30.07,South,179,0.0,0.0,80,0.00,,,0.00,weatherlink.com 1.10,2013-02-25 09:32:00,
2013-02-25 04:47:00,19.3,14.0,30.09,SW,218,0.0,1.0,80,0.00,,,0.00,weatherlink.com 1.10,2013-02-25 09:47:00,
2013-02-25 05:02:00,19.8,15.0,30.10,SE,134,0.0,1.0,80,0.00,,,0.00,weatherlink.com 1.10,2013-02-25 10:02:00,
2013-02-25 05:17:00,20.0,15.0,30.11,SSE,162,0.0,1.0,79,0.00,,,0.00,weatherlink.com 1.10,2013-02-25 10:17:00,
2013-02-25 05:32:00,20.1,15.0,30.09,ESE,110,0.0,1.0,79,0.00,,,0.00,weatherlink.com 1.10,2013-02-25 10:32:00,
2013-02-25 05:47:00,19.8,15.0,30.11,WSW,252,1.0,1.0,80,0.00,,,0.00,weatherlink.com 1.10,2013-02-25 10:47:00,
2013-02-25 06:02:00,19.6,14.0,30.12,SSE,165,0.0,1.0,80,0.00,,,0.00,weatherlink.com 1.10,2013-02-25 11:02:00,
2013-02-25 06:17:00,19.5,14.0,30.12,ESE,115,0.0,1.0,80,0.00,,,0.00,weatherlink.com 1.10,2013-02-25 11:17:00,
2013-02-25 06:32:00,19.4,14.0,30.11,SSE,160,0.0,1.0,80,0.00,,,0.00,weatherlink.com 1.10,2013-02-25 11:32:00,
2013-02-25 06:47:00,18.7,14.0,30.12,SE,129,0.0,1.0,81,0.00,,,0.00,weatherlink.com 1.10,2013-02-25 11:47:00,
2013-02-25 07:02:00,19.0,14.0,30.12,ESE,122,0.0,1.0,82,0.00,,,0.00,weatherlink.com 1.10,2013-02-25 12:02:00,
2013-02-25 07:17:00,18.9,14.0,30.12,WSW,245,0.0,1.0,82,0.00,,,0.00,weatherlink.com 1.10,2013-02-25 12:17:00,
2013-02-25 07:32:00,19.4,15.0,30.13,SW,222,0.0,3.0,82,0.00,,,0.00,weatherlink.com 1.10,2013-02-25 12:32:00,
2013-02-25 07:47:00,19.7,15.0,30.14,SSW,212,0.0,4.0,83,0.00,,,0.00,weatherlink.com 1.10,2013-02-25 12:47:00,
2013-02-25 08:02:00,20.4,16.0,30.14,WSW,253,0.0,2.0,82,0.00,,,0.00,weatherlink.com 1.10,2013-02-25 13:02:00,
2013-02-25 08:17:00,21.1,16.0,30.14,WSW,256,1.0,3.0,81,0.00,,,0.00,weatherlink.com 1.10,2013-02-25 13:17:00,
2013-02-25 08:32:00,21.8,17.0,30.14,WNW,294,3.0,5.0,80,0.00,,,0.00,weatherlink.com 1.10,2013-02-25 13:32:00,
2013-02-25 08:47:00,22.2,17.0,30.15,WSW,251,0.0,4.0,79,0.00,,,0.00,weatherlink.com 1.10,2013-02-25 13:47:00,
2013-02-25 09:02:00,22.9,17.0,30.16,SW,216,2.0,8.0,78,0.00,,,0.00,weatherlink.com 1.10,2013-02-25 14:02:00,
2013-02-25 09:17:00,23.5,17.0,30.17,NW,318,3.0,7.0,77,0.00,,,0.00,weatherlink.com 1.10,2013-02-25 14:17:00,
2013-02-25 09:32:00,23.9,17.0,30.17,SSW,205,4.0,6.0,76,0.00,,,0.00,weatherlink.com 1.10,2013-02-25 14:32:00,
2013-02-25 09:47:00,24.7,18.0,30.17,WNW,299,2.0,6.0,75,0.00,,,0.00,weatherlink.com 1.10,2013-02-25 14:47:00,
2013-02-25 10:02:00,25.2,18.0,30.16,WNW,300,4.0,8.0,73,0.00,,,0.00,weatherlink.com 1.10,2013-02-25 15:02:00,
2013-02-25 10:17:00,25.6,18.0,30.17,NW,326,6.0,6.0,73,0.00,,,0.00,weatherlink.com 1.10,2013-02-25 15:17:00,
2013-02-25 10:32:00,26.7,19.0,30.18,WSW,249,2.0,6.0,72,0.00,,,0.00,weatherlink.com 1.10,2013-02-25 15:32:00,
2013-02-25 10:47:00,26.7,18.0,30.18,NNE,16,0.0,7.0,71,0.00,,,0.00,weatherlink.com 1.10,2013-02-25 15:47:00,
2013-02-25 11:02:00,27.4,18.0,30.18,NW,304,4.0,6.0,69,0.00,,,0.00,weatherlink.com 1.10,2013-02-25 16:02:00,
2013-02-25 11:17:00,27.8,18.0,30.18,WNW,289,3.0,6.0,68,0.00,,,0.00,weatherlink.com 1.10,2013-02-25 16:17:00,
2013-02-25 11:32:00,29.1,19.0,30.18,NE,35,0.0,4.0,67,0.00,,,0.00,weatherlink.com 1.10,2013-02-25 16:32:00,
2013-02-25 11:47:00,30.4,19.0,30.17,WNW,293,2.0,3.0,63,0.00,,,0.00,weatherlink.com 1.10,2013-02-25 16:47:00,
2013-02-25 12:03:00,31.7,20.0,30.18,SSE,148,2.0,5.0,62,0.00,,,0.00,weatherlink.com 1.10,2013-02-25 17:03:00,
2013-02-25 12:18:00,31.8,19.0,30.17,East,92,0.0,5.0,60,0.00,,,0.00,weatherlink.com 1.10,2013-02-25 17:18:00,
2013-02-25 12:33:00,32.4,19.0,30.17,WNW,284,0.0,3.0,59,0.00,,,0.00,weatherlink.com 1.10,2013-02-25 17:33:00,
2013-02-25 12:48:00,33.3,20.0,30.17,SW,221,0.0,5.0,58,0.00,,,0.00,weatherlink.com 1.10,2013-02-25 17:48:00,
2013-02-25 13:03:00,32.7,20.0,30.16,West,269,3.0,6.0,60,0.00,,,0.00,weatherlink.com 1.10,2013-02-25 18:03:00,
2013-02-25 13:18:00,33.2,20.0,30.16,North,356,0.0,5.0,59,0.00,,,0.00,weatherlink.com 1.10,2013-02-25 18:18:00,
2013-02-25 13:33:00,34.0,20.0,30.14,WNW,283,3.0,6.0,58,0.00,,,0.00,weatherlink.com 1.10,2013-02-25 18:33:00,
2013-02-25 13:48:00,33.9,21.0,30.13,NW,318,5.0,6.0,59,0.00,,,0.00,weatherlink.com 1.10,2013-02-25 18:48:00,
2013-02-25 14:03:00,34.5,21.0,30.13,WNW,294,4.0,6.0,58,0.00,,,0.00,weatherlink.com 1.10,2013-02-25 19:03:00,
2013-02-25 14:18:00,34.9,20.0,30.13,NW,324,5.0,6.0,55,0.00,,,0.00,weatherlink.com 1.10,2013-02-25 19:18:00,
2013-02-25 14:33:00,34.8,20.0,30.13,NNW,334,2.0,5.0,56,0.00,,,0.00,weatherlink.com 1.10,2013-02-25 19:33:00,
2013-02-25 14:48:00,35.4,21.0,30.14,WNW,300,3.0,4.0,55,0.00,,,0.00,weatherlink.com 1.10,2013-02-25 19:48:00,
2013-02-25 15:03:00,35.4,21.0,30.14,NW,316,2.0,5.0,55,0.00,,,0.00,weatherlink.com 1.10,2013-02-25 20:03:00,
2013-02-25 15:18:00,36.4,21.0,30.12,WNW,294,4.0,7.0,55,0.00,,,0.00,weatherlink.com 1.10,2013-02-25 20:18:00,
2013-02-25 15:33:00,36.4,21.0,30.14,NW,314,3.0,4.0,55,0.00,,,0.00,weatherlink.com 1.10,2013-02-25 20:33:00,
2013-02-25 15:48:00,37.1,22.0,30.13,NW,326,2.0,5.0,55,0.00,,,0.00,weatherlink.com 1.10,2013-02-25 20:48:00,
2013-02-25 16:03:00,37.6,21.0,30.13,West,267,3.0,5.0,52,0.00,,,0.00,weatherlink.com 1.10,2013-02-25 21:03:00,
2013-02-25 16:18:00,37.5,21.0,30.14,WNW,293,1.0,4.0,52,0.00,,,0.00,weatherlink.com 1.10,2013-02-25 21:18:00,
2013-02-25 16:33:00,40.0,23.0,30.14,ESE,112,1.0,2.0,51,0.00,,,0.00,weatherlink.com 1.10,2013-02-25 21:33:00,
2013-02-25 16:48:00,38.7,21.0,30.14,SW,229,2.0,4.0,50,0.00,,,0.00,weatherlink.com 1.10,2013-02-25 21:48:00,
2013-02-25 17:04:00,38.7,20.0,30.14,SSE,167,1.0,3.0,47,0.00,,,0.00,weatherlink.com 1.10,2013-02-25 22:04:00,
2013-02-25 17:18:00,38.5,19.0,30.15,ENE,74,0.0,2.0,46,0.00,,,0.00,weatherlink.com 1.10,2013-02-25 22:18:00,
2013-02-25 17:33:00,36.0,18.0,30.15,NNW,341,0.0,3.0,49,0.00,,,0.00,weatherlink.com 1.10,2013-02-25 22:33:00,
2013-02-25 17:48:00,34.3,18.0,30.15,WSW,252,1.0,2.0,52,0.00,,,0.00,weatherlink.com 1.10,2013-02-25 22:48:00,
2013-02-25 18:18:00,32.1,18.0,30.16,WSW,255,0.0,2.0,56,0.00,,,0.00,weatherlink.com 1.10,2013-02-25 23:18:00,
2013-02-25 18:35:00,31.6,18.0,30.16,West,274,2.0,2.0,57,0.00,,,0.00,weatherlink.com 1.10,2013-02-25 23:35:00,
2013-02-25 18:48:00,31.3,18.0,30.16,WSW,253,0.0,3.0,58,0.00,,,0.00,weatherlink.com 1.10,2013-02-25 23:48:00,
2013-02-25 19:03:00,30.8,18.0,30.18,WSW,240,0.0,2.0,59,0.00,,,0.00,weatherlink.com 1.10,2013-02-26 00:03:00,
2013-02-25 19:18:00,30.3,18.0,30.18,West,271,0.0,2.0,60,0.00,,,0.00,weatherlink.com 1.10,2013-02-26 00:18:00,
2013-02-25 19:33:00,29.8,18.0,30.18,SSW,203,1.0,2.0,62,0.00,,,0.00,weatherlink.com 1.10,2013-02-26 00:33:00,
2013-02-25 19:48:00,29.6,18.0,30.18,WSW,238,0.0,3.0,62,0.00,,,0.00,weatherlink.com 1.10,2013-02-26 00:48:00,
2013-02-25 20:03:00,29.3,18.0,30.18,SSW,205,1.0,3.0,63,0.00,,,0.00,weatherlink.com 1.10,2013-02-26 01:03:00,
2013-02-25 20:18:00,29.1,18.0,30.18,West,259,1.0,3.0,63,0.00,,,0.00,weatherlink.com 1.10,2013-02-26 01:18:00,
2013-02-25 20:34:00,28.6,18.0,30.19,SW,233,0.0,1.0,64,0.00,,,0.00,weatherlink.com 1.10,2013-02-26 01:34:00,
2013-02-25 20:49:00,28.0,18.0,30.18,WNW,289,0.0,0.0,65,0.00,,,0.00,weatherlink.com 1.10,2013-02-26 01:49:00,
2013-02-25 21:04:00,28.0,18.0,30.17,West,267,1.0,2.0,65,0.00,,,0.00,weatherlink.com 1.10,2013-02-26 02:04:00,
2013-02-25 21:19:00,28.4,18.0,30.17,SW,219,1.0,3.0,64,0.00,,,0.00,weatherlink.com 1.10,2013-02-26 02:19:00,
2013-02-25 21:34:00,28.2,18.0,30.18,SW,231,0.0,1.0,65,0.00,,,0.00,weatherlink.com 1.10,2013-02-26 02:34:00,
2013-02-25 21:49:00,28.0,18.0,30.18,NNE,23,0.0,1.0,65,0.00,,,0.00,weatherlink.com 1.10,2013-02-26 02:49:00,
2013-02-25 22:04:00,28.3,17.0,30.17,East,101,0.0,1.0,64,0.00,,,0.00,weatherlink.com 1.10,2013-02-26 03:04:00,
2013-02-25 22:20:00,28.1,17.0,30.15,ESE,107,0.0,1.0,64,0.00,,,0.00,weatherlink.com 1.10,2013-02-26 03:20:00,
2013-02-25 22:34:00,27.9,17.0,30.17,SW,221,1.0,4.0,65,0.00,,,0.00,weatherlink.com 1.10,2013-02-26 03:34:00,
2013-02-25 22:49:00,28.0,18.0,30.17,SSE,160,0.0,3.0,65,0.00,,,0.00,weatherlink.com 1.10,2013-02-26 03:49:00,
2013-02-25 23:04:00,28.0,18.0,30.16,South,187,0.0,2.0,65,0.00,,,0.00,weatherlink.com 1.10,2013-02-26 04:04:00,
2013-02-25 23:19:00,28.2,18.0,30.17,West,262,1.0,6.0,66,0.00,,,0.00,weatherlink.com 1.10,2013-02-26 04:19:00,
2013-02-25 23:34:00,28.1,18.0,30.16,NE,43,0.0,8.0,66,0.00,,,0.00,weatherlink.com 1.10,2013-02-26 04:34:00,
2013-02-25 23:49:00,28.0,18.0,30.16,West,267,0.0,3.0,67,0.00,,,0.00,weatherlink.com 1.10,2013-02-26 04:49:00,